Terminal Aerodrome Forecast
Issued by NWS Detroit/Pontiac, MI

Home | Current Version | Previous Version | Text Only | Print | Product List | Glossary On
Versions: 1 2 3 4 5 6 7 8 9 10 11 12 13 14 15
000
FTUS43 KDTX 241221 AAA
TAFFNT
TAF AMD
KFNT 241221Z 2412/2512 20012KT P6SM SCT070 BKN150 WS020/23045KT
     FM241500 23014G25KT P6SM BKN070
     FM242100 25012KT P6SM OVC030
     FM250000 VRB05KT 3SM -RA BR OVC008
     FM250500 04006KT 1SM -RA BR OVC006=

USA.gov is the U.S. government's official web portal to all federal, state and local government web resources and services.